Regional Weather Roundup
Issued by NWS

Home | Current Version | Previous Version | Text Only | Print | Product List | Glossary On
Versions: 1 2 3 4 5 6 7 8 9 10 11 12 13 14 15 16 17 18 19 20 21 22 23 24 25 26 27
000
ASUS45 KBOI 231710
RWRID
WEATHER ROUNDUP FOR IDAHO
NATIONAL WEATHER SERVICE BOISE ID
1100 AM MDT THU OCT 23 2014

NOTE: "FAIR" INDICATES FEW OR NO CLOUDS BELOW 12000 FEET
WITH NO SIGNIFICANT WEATHER AND/OR OBSTRUCTIONS TO VISIBILITY

IDZ012-014-231800-
SOUTHWEST IDAHO


CITY           SKY/WX    TMP DP  RH WIND       PRES   REMARKS
BOISE          LGT RAIN  55  47  74 SE12      30.05F
CALDWELL       CLOUDY    54  37  54 SE12      30.05S
MOUNTAIN HOME  PTSUNNY   56  38  51 E6        30.08R
$$

IDZ016-017-231800-
SOUTHCENTRAL IDAHO


CITY           SKY/WX    TMP DP  RH WIND       PRES   REMARKS
BURLEY         PTSUNNY   58  35  42 SW10      30.11R
JEROME         CLOUDY    53  31  42 N6        30.13R
TWIN FALLS     CLOUDY    62  32  32 SW9       30.12R
$$

IDZ019>023-231800-
SOUTHEAST IDAHO


CITY           SKY/WX    TMP DP  RH WIND       PRES   REMARKS
IDAHO FALLS    CLOUDY    52  31  44 SW6       30.14R
POCATELLO      SUNNY     60  31  33 NE8       30.12R
REXBURG        CLOUDY    52  30  43 SW7       30.13R
$$

IDZ006-010-011-018-031-032-231800-
CENTRAL IDAHO MOUNTAINS


CITY           SKY/WX    TMP DP  RH WIND       PRES   REMARKS
MCCALL         LGT RAIN  46  42  86 SE12      30.04R
HAILEY         CLOUDY    50  39  66 NW7       30.16R
STANLEY          N/A     45  39  79 CALM      30.13S
SALMON         CLOUDY   N/A N/A N/A MISG        N/A
CHALLIS        PTSUNNY   53  39  59 CALM      30.07S
$$

IDZ002-004-006-007-026-231800-
NORTHERN IDAHO


CITY           SKY/WX    TMP DP  RH WIND       PRES   REMARKS
LEWISTON       CLOUDY    57  49  74 E9        29.80F
LOWELL           N/A     51  49  92 CALM      29.91S
COEUR D`ALENE  CLOUDY    52  48  87 S10       29.80F
MULLAN PASS    LGT RAIN  40  40 100 S14G25    29.85F VSB 1/4 WCI  32
$$



USA.gov is the U.S. government's official web portal to all federal, state and local government web resources and services.